Location: Brivio
(45.7333°N, 9.4500°E)
Time: 03:33:34
(UTC+00:00)

ATLAS 3B R/B - Pass Details

Date: 18 October 2019
Orbit: 1029 x 1166 km, 63.8° (Epoch: 10 November)

Event Time Altitude Azimuth Distance (km) Brightness Sun altitude
Rises 18:55:16 0° 194° (SSW) 3,833 5.6 -25.7°
Reaches altitude 10° 18:58:01 10° 189° (S) 2,865 4.9 -26.1°
Enters shadow 19:01:19 28° 172° (S) 1,830 3.7 -26.7°
